Probability
0 0 0 0 0 0 0 0 0 0 0 0 0 3 16 23 13 19 52 71 77 81 77 81 77 74 74 74 68 71 68 74 74 74 81 74 71 68 74 65 55 48 48 45
0 0 0 0 0 0 0 0 0 0 0 0 0 3 16 26 16 16 42 61 74 71 74 77 74 74 77 77 68 71 74 74 74 77 77 71 68 61 61 58 48 45 42 45
0 0 0 0 0 0 0 0 0 0 0 0 0 6 19 23 19 23 23 42 58 68 71 71 71 71 68 71 61 55 65 61 68 71 65 61 68 58 48 58 52 45 39 45
0 0 0 0 0 0 0 0 0 0 0 0 0 0 26 26 29 35 29 39 35 55 68 68 68 65 68 65 58 61 65 58 55 58 55 52 42 39 52 61 52 42 35 32
0 0 0 0 0 0 0 0 0 0 0 0 0 0 13 13 23 32 29 32 39 45 45 58 65 61 61 58 52 58 58 55 55 58 52 55 48 52 52 55 55 48 35 26
0 0 0 0 0 0 0 0 0 0 0 0 0 0 13 10 6 10 29 35 39 35 39 48 55 68 61 55 52 52 58 58 58 55 52 48 39 45 55 52 45 35 32 23
0 0 0 0 0 0 0 0 0 0 0 0 0 0 6 3 3 3 19 32 35 32 45 48 55 55 55 48 45 45 55 52 58 52 42 48 35 42 42 55 42 35 23 23
0 0 0 0 0 0 0 0 0 0 0 0 0 0 6 0 3 3 13 29 23 23 29 45 48 48 48 45 42 39 42 45 42 45 48 52 58 42 35 45 29 29 23 19
0 0 0 0 0 0 0 0 0 0 0 0 0 3 3 0 0 0 13 23 23 26 29 45 45 45 39 39 42 45 45 48 42 39 42 55 48 39 39 45 39 23 39 19
0 0 0 0 0 0 0 0 0 0 13 0 0 0 6 6 6 10 19 29 29 35 35 39 45 45 35 42 52 48 45 48 52 39 39 26 39 42 35 39 32 42 35 32
0 0 0 0 0 0 0 0 0 0 0 0 0 0 0 0 16 16 16 35 45 29 45 52 48 42 42 52 58 45 48 52 48 29 32 35 39 29 39 45 52 48 35 52
0 0 0 0 0 0 0 0 0 0 10 6 0 0 0 0 3 6 16 42 55 52 61 58 48 35 48 39 45 45 39 42 29 29 29 32 29 32 39 45 52 48 45 48
0 0 0 0 0 0 0 0 0 0 10 0 0 0 0 3 3 10 16 45 74 77 71 65 58 45 48 45 48 45 42 39 32 39 35 35 42 39 42 55 58 55 58 55
0 0 0 0 0 0 0 0 0 0 0 0 0 3 0 3 10 26 39 68 87 90 87 77 68 68 61 58 55 55 55 45 39 39 39 39 45 42 52 65 55 61 68 65
0 0 0 0 0 0 0 0 0 0 0 0 0 0 3 10 10 29 55 77 84 94 94 90 84 74 74 71 65 58 58 61 52 52 39 39 45 55 55 61 65 61 61 52
0 0 0 0 0 0 0 0 0 0 0 0 0 0 3 19 19 35 58 71 84 84 94 94 87 87 77 77 71 65 58 55 58 52 52 58 55 52 55 58 55 61 52 45
3 3 0 0 0 0 0 0 0 0 0 0 0 10 19 29 42 68 71 74 84 90 84 90 84 84 84 77 71 68 65 68 55 55 55 61 55 55 55 39 42 42 42 35
3 10 16 0 0 0 0 0 0 0 0 0 6 26 35 48 52 65 65 68 65 71 81 87 90 84 81 74 71 71 71 68 55 48 52 48 45 45 42 35 39 29 29 16
0 3 3 0 0 0 0 0 0 0 0 0 6 23 35 39 32 45 55 65 68 71 71 74 74 68 71 71 74 65 61 52 52 48 45 42 39 29 29 29 26 16 13 13
0 6 0 0 0 0 0 0 0 0 0 10 16 29 39 35 35 58 61 61 61 65 68 68 68 68 68 68 65 55 48 42 39 35 32 29 29 26 26 16 16 13 6 3
0 0 0 0 0 0 0 0 0 0 3 23 26 29 35 61 61 58 58 52 48 52 45 52 42 42 48 52 45 39 32 26 23 29 26 23 23 19 16 16 13 10 6 3
0 0 0 0 0 0 0 0 3 23 23 16 19 23 32 45 45 48 26 23 23 23 26 29 35 32 35 35 39 29 29 26 19 13 6 6 6 6 3 6 6 6 3 0
0 0 0 0 0 3 3 3 10 6 6 6 10 23 29 26 26 19 16 13 13 10 10 10 19 19 26 26 23 19 19 13 10 6 3 3 0 0 0 0 0 0 0 0
0 0 0 0 0 0 0 0 0 3 3 0 10 13 19 16 13 13 13 6 10 10 10 6 6 6 3 6 6 6 3 3 3 0 0 0 0 0 0 0 0 0 0 0
0 0 0 0 0 0 3 10 0 0 0 0 10 10 3 6 6 10 10 10 6 3 3 0 0 0 0 0 0 0 0 0 0 0 0 0 0 0 0 0 0 0 0 0
0 0 0 0 0 0 3 0 0 0 3 3 0 3 3 3 0 3 3 3 3 3 0 0 0 0 0 0 0 0 0 0 0 0 0 0 0 0 0 0 0 0 0 0
Height
5875 5876 5876 5876 5876 5878 5878 5879 5880 5880 5879 5878 5876 5875 5871 5869 5866 5863 5859 5856 5853 5849 5846 5843 5840 5838 5836 5835 5835 5835 5836 5838 5841 5844 5847 5850 5854 5857 5860 5863 5866 5869 5871 5873
5871 5872 5872 5872 5873 5875 5875 5875 5875 5876 5876 5875 5873 5872 5868 5866 5863 5860 5857 5854 5851 5848 5844 5841 5838 5835 5834 5834 5833 5834 5834 5836 5838 5841 5844 5847 5851 5854 5857 5860 5863 5866 5869 5871
5867 5869 5869 5870 5870 5870 5871 5871 5872 5872 5872 5871 5870 5868 5865 5862 5859 5857 5855 5852 5849 5846 5842 5840 5836 5833 5832 5832 5832 5832 5832 5834 5836 5839 5841 5845 5848 5851 5854 5858 5861 5864 5866 5869
5862 5864 5865 5866 5866 5867 5867 5868 5868 5868 5868 5868 5868 5864 5861 5859 5856 5854 5853 5850 5847 5844 5841 5838 5835 5833 5831 5830 5830 5830 5831 5832 5834 5836 5839 5842 5845 5848 5852 5855 5858 5861 5863 5866
5858 5860 5861 5862 5862 5862 5863 5864 5864 5864 5864 5864 5863 5861 5859 5856 5855 5853 5851 5849 5846 5844 5840 5837 5835 5832 5830 5829 5828 5828 5828 5830 5832 5834 5836 5839 5842 5845 5849 5852 5855 5858 5861 5864
5854 5856 5857 5858 5858 5858 5859 5859 5860 5860 5860 5860 5859 5857 5855 5855 5854 5852 5850 5848 5846 5843 5840 5837 5834 5831 5829 5827 5826 5826 5826 5828 5829 5832 5834 5836 5839 5842 5846 5849 5853 5856 5858 5861
5850 5851 5853 5854 5854 5855 5855 5856 5857 5857 5857 5856 5853 5851 5851 5852 5852 5851 5849 5847 5844 5842 5839 5836 5833 5830 5828 5826 5824 5824 5825 5826 5828 5829 5831 5834 5837 5840 5843 5846 5849 5853 5856 5858
5846 5848 5849 5850 5850 5851 5852 5854 5855 5856 5855 5852 5848 5846 5846 5849 5849 5848 5847 5845 5843 5841 5838 5835 5833 5830 5827 5825 5823 5823 5823 5824 5825 5827 5829 5832 5834 5837 5840 5843 5846 5850 5853 5855
5844 5848 5848 5847 5847 5847 5848 5850 5853 5853 5852 5850 5847 5844 5842 5844 5846 5845 5844 5844 5841 5839 5837 5835 5832 5830 5827 5825 5823 5822 5822 5823 5824 5825 5827 5829 5831 5834 5837 5840 5843 5846 5849 5852
5838 5842 5844 5844 5844 5844 5845 5847 5849 5850 5849 5849 5848 5844 5840 5839 5841 5842 5841 5840 5839 5838 5836 5834 5831 5829 5827 5825 5823 5822 5821 5822 5823 5824 5825 5827 5828 5831 5834 5837 5841 5843 5846 5848
5834 5836 5839 5841 5841 5842 5842 5843 5844 5846 5847 5847 5846 5844 5838 5837 5837 5838 5839 5838 5837 5836 5835 5833 5831 5829 5827 5824 5823 5822 5821 5821 5822 5823 5824 5825 5827 5829 5832 5835 5837 5840 5842 5844
5828 5831 5833 5836 5838 5838 5839 5840 5841 5841 5842 5842 5843 5843 5838 5834 5833 5835 5836 5836 5835 5834 5833 5832 5830 5828 5826 5824 5822 5822 5821 5821 5821 5822 5823 5824 5826 5828 5830 5832 5834 5836 5838 5840
5821 5824 5827 5830 5835 5836 5835 5835 5836 5837 5838 5838 5840 5840 5835 5833 5832 5831 5832 5832 5832 5832 5831 5830 5829 5828 5826 5824 5823 5822 5821 5821 5821 5822 5823 5824 5825 5826 5828 5830 5832 5833 5835 5837
5814 5816 5820 5825 5827 5826 5826 5828 5830 5831 5833 5834 5836 5834 5831 5830 5829 5827 5828 5829 5829 5830 5830 5829 5828 5827 5825 5824 5823 5822 5821 5821 5821 5822 5822 5823 5824 5825 5826 5827 5829 5831 5832 5833
5806 5808 5812 5816 5819 5819 5819 5820 5822 5824 5827 5829 5830 5830 5827 5825 5824 5821 5822 5825 5825 5826 5827 5827 5826 5825 5824 5823 5822 5822 5821 5821 5821 5821 5822 5822 5823 5824 5825 5826 5827 5828 5829 5830
5796 5800 5803 5807 5812 5813 5814 5814 5815 5818 5821 5822 5824 5824 5821 5819 5816 5814 5816 5818 5821 5822 5823 5824 5823 5823 5822 5822 5821 5820 5820 5820 5820 5820 5821 5821 5822 5822 5823 5824 5824 5825 5826 5826
5789 5792 5796 5800 5804 5806 5807 5810 5810 5811 5813 5817 5818 5817 5814 5813 5810 5810 5812 5814 5816 5818 5818 5820 5820 5820 5819 5819 5819 5819 5818 5818 5818 5818 5818 5819 5819 5819 5820 5820 5821 5822 5822 5822
5782 5784 5788 5792 5796 5797 5804 5804 5804 5805 5807 5808 5808 5808 5807 5808 5807 5807 5808 5810 5811 5813 5813 5814 5815 5816 5816 5816 5815 5816 5816 5816 5815 5815 5815 5816 5816 5816 5816 5817 5817 5817 5817 5817
5775 5777 5781 5784 5787 5790 5795 5795 5795 5796 5798 5798 5797 5797 5798 5800 5802 5801 5803 5804 5805 5807 5808 5809 5810 5811 5811 5811 5811 5812 5812 5812 5812 5812 5812 5811 5812 5812 5812 5812 5812 5812 5812 5812
5768 5770 5774 5776 5779 5782 5786 5786 5785 5788 5788 5785 5787 5789 5790 5792 5793 5793 5795 5797 5799 5800 5801 5802 5804 5805 5806 5806 5807 5807 5807 5807 5807 5807 5807 5807 5807 5807 5807 5807 5807 5807 5806 5806
5761 5763 5766 5768 5771 5775 5774 5774 5776 5779 5778 5777 5779 5781 5782 5783 5785 5786 5788 5789 5791 5792 5794 5795 5797 5798 5799 5800 5801 5801 5802 5802 5802 5802 5802 5802 5801 5801 5801 5800 5800 5800 5800 5799
5755 5756 5758 5760 5763 5767 5763 5765 5767 5767 5768 5769 5770 5772 5773 5774 5776 5777 5779 5780 5782 5784 5786 5787 5789 5791 5792 5793 5794 5795 5796 5796 5796 5796 5796 5795 5794 5794 5794 5793 5792 5792 5791 5791
5748 5750 5750 5753 5756 5755 5755 5757 5758 5759 5760 5760 5761 5763 5764 5765 5766 5768 5770 5772 5774 5776 5778 5780 5782 5783 5785 5786 5787 5788 5789 5789 5789 5789 5789 5788 5787 5786 5786 5785 5784 5784 5783 5782
5739 5741 5743 5745 5746 5747 5748 5749 5750 5751 5751 5752 5753 5754 5755 5755 5757 5759 5761 5763 5766 5768 5770 5772 5773 5775 5777 5778 5779 5780 5781 5781 5781 5781 5781 5780 5780 5778 5777 5777 5776 5775 5774 5772
5732 5733 5735 5737 5738 5739 5740 5741 5742 5742 5743 5744 5744 5745 5746 5747 5749 5751 5753 5755 5758 5760 5762 5764 5766 5768 5769 5770 5772 5773 5773 5773 5773 5773 5773 5772 5771 5770 5769 5768 5767 5766 5765 5764
5726 5728 5729 5730 5730 5732 5733 5734 5734 5734 5735 5736 5736 5737 5738 5739 5741 5743 5745 5747 5750 5752 5754 5756 5758 5760 5762 5763 5764 5765 5765 5766 5766 5766 5765 5764 5763 5762 5762 5761 5759 5758 5756 5755
Wind_Speed
17 15 14 11 10 10 11 13 14 14 14 16 16 15 17 18 20 21 22 21 21 20 19 17 16 15 14 12 11 11 11 13 16 16 16 18 18 19 19 19 18 16 14 11
18 15 13 12 11 13 16 16 14 15 14 15 17 14 16 18 19 20 21 20 20 20 19 17 16 14 13 11 10 10 10 12 14 15 16 17 18 19 19 19 18 16 15 12
18 15 14 15 14 15 16 15 14 15 15 15 16 15 17 18 20 18 20 19 20 19 18 17 15 13 12 11 10 10 10 11 13 15 16 17 18 19 19 19 19 18 16 13
18 14 15 17 17 16 15 14 15 16 16 15 15 17 17 19 18 18 19 19 19 18 18 17 15 13 12 10 9 10 11 11 12 14 16 18 18 18 19 19 19 18 16 14
17 15 16 18 17 16 15 15 16 16 16 15 15 15 15 16 18 19 18 19 18 17 16 15 14 13 11 10 9 10 9 10 12 14 15 17 18 18 19 19 19 18 17 16
18 16 17 17 16 17 15 16 16 14 14 16 14 14 13 14 18 19 18 18 17 16 16 15 14 13 11 9 9 8 9 9 11 13 14 16 17 17 18 18 18 18 17 16
17 16 17 18 17 15 14 15 13 12 15 17 16 16 12 11 17 18 18 18 16 15 15 14 13 13 10 8 7 7 8 9 10 12 13 14 16 17 18 19 19 18 18 16
14 14 14 16 16 14 14 15 14 14 17 20 19 14 9 10 15 17 17 16 15 14 14 13 13 12 11 8 7 5 6 9 10 11 12 13 15 17 18 19 19 19 18 17
10 12 13 15 16 15 14 15 14 17 17 21 20 15 9 12 14 16 15 15 14 14 13 13 12 12 11 9 7 5 6 8 9 10 12 13 14 16 17 18 19 19 18 18
18 16 13 15 16 15 15 15 15 18 18 18 18 19 16 15 13 15 16 14 14 13 13 12 12 11 11 9 7 6 6 8 9 10 12 12 13 15 17 17 18 18 18 19
21 21 17 16 16 14 14 15 17 18 18 18 19 22 19 15 12 13 16 17 15 14 12 12 12 11 12 10 7 5 5 5 7 9 10 11 12 14 17 17 17 18 18 19
22 22 21 19 17 16 15 17 18 19 19 20 19 22 21 14 12 15 16 18 17 14 12 11 11 11 11 10 8 6 5 4 5 6 7 8 11 13 14 16 16 17 18 19
26 26 25 21 18 18 19 19 19 20 21 20 19 23 22 15 15 14 16 18 18 16 13 11 11 11 11 9 8 7 6 5 3 4 6 7 9 12 13 13 14 15 17 18
31 30 27 23 20 23 26 24 23 22 22 21 20 23 26 23 21 18 15 16 17 17 14 12 12 11 11 10 8 7 6 5 4 5 6 7 9 10 10 11 12 14 16 17
33 33 31 28 26 25 26 24 24 25 23 23 23 25 28 28 25 22 18 18 18 18 16 14 12 12 11 11 9 8 7 6 5 5 5 6 8 9 10 11 12 13 15 16
33 34 33 31 28 27 29 26 22 23 22 22 24 26 27 29 27 23 21 21 20 19 18 17 15 14 13 12 11 9 8 8 8 8 8 9 10 11 12 13 14 14 15 16
30 32 33 32 28 28 29 26 23 22 22 23 25 28 32 31 28 27 25 24 22 22 21 20 19 17 16 15 14 12 11 10 11 11 12 12 12 13 14 15 16 16 17 18
32 31 31 31 31 32 29 27 26 25 26 27 31 34 36 36 36 35 32 31 29 27 25 24 22 20 19 18 16 15 13 13 13 13 13 14 15 16 17 17 18 19 19 20
32 32 31 31 30 31 29 29 31 31 30 32 36 39 38 37 36 37 35 34 32 31 29 27 26 24 23 21 20 19 18 17 16 16 16 17 18 18 18 19 20 21 21 22
32 33 32 31 31 29 27 29 31 33 33 35 36 37 36 36 36 36 35 34 34 33 32 31 29 28 26 25 23 23 22 20 20 19 19 20 20 20 21 22 23 24 25 26
28 29 29 30 30 28 31 33 33 33 36 36 35 35 37 38 38 37 36 36 35 34 34 33 32 31 29 27 26 25 25 24 23 23 23 24 24 24 25 25 26 27 28 29
27 27 27 27 27 29 34 34 35 35 35 35 36 35 35 36 37 37 37 37 35 36 35 34 33 32 31 30 29 29 28 28 27 27 27 28 28 28 29 29 29 30 32 32
30 30 30 29 28 31 33 33 34 35 36 36 36 34 34 35 35 36 36 36 36 35 36 35 35 34 33 33 32 31 30 30 30 30 30 30 31 31 32 32 33 34 35 35
28 27 28 29 29 31 31 32 33 34 34 33 33 33 33 34 34 34 35 35 35 35 34 34 35 34 34 34 34 32 31 31 32 32 32 33 33 33 33 34 35 36 36 35
26 27 26 27 29 31 31 31 31 32 31 31 31 31 31 32 33 32 33 33 33 33 34 33 34 34 34 34 34 32 31 31 32 32 33 33 33 33 34 34 34 33 33 33
27 26 26 27 28 29 28 28 29 29 29 29 29 29 29 30 30 30 30 30 30 31 31 31 31 32 32 33 33 33 33 32 32 32 32 32 33 32 32 32 31 31 32 33
Wind_Direction
287 286 288 287 288 284 270 260 256 262 266 278 287 291 298 306 312 317 322 327 328 326 325 322 316 307 301 298 289 273 258 243 235 232 233 229 226 221 223 226 224 226 229 231
283 283 281 276 265 264 266 263 256 259 267 278 285 288 291 300 305 316 322 325 328 328 326 323 320 310 304 296 286 273 260 248 236 232 231 227 224 222 220 220 219 221 225 227
280 280 278 277 270 264 265 268 262 260 265 273 285 288 290 300 307 317 323 325 327 329 328 328 324 316 308 297 280 268 258 247 239 235 230 226 224 222 221 220 219 220 221 222
275 268 260 267 269 267 265 266 264 260 263 266 272 282 289 301 311 321 327 329 330 331 331 330 327 320 312 301 286 271 253 243 237 235 230 226 225 222 220 221 218 218 217 218
268 267 261 261 267 265 259 254 258 261 263 261 264 272 284 303 316 322 327 330 331 332 334 333 331 325 314 301 288 277 256 242 237 232 229 223 222 222 222 220 220 217 217 219
261 257 263 265 263 263 258 254 254 254 261 264 263 269 271 294 313 319 322 326 328 330 333 335 336 332 322 310 295 273 248 242 237 232 228 224 222 222 220 220 220 219 219 220
258 252 253 262 261 258 258 255 251 259 267 274 268 259 254 288 308 314 316 321 327 330 333 336 339 339 330 318 305 276 249 240 236 233 227 224 222 222 220 219 220 220 220 222
254 267 265 263 264 252 247 250 247 250 270 281 285 265 243 278 302 308 312 317 325 328 332 337 341 344 343 333 315 284 251 243 239 234 228 224 222 222 222 219 220 223 224 226
224 262 265 259 263 259 241 239 244 256 267 286 292 292 271 273 290 305 313 316 321 326 332 337 340 346 348 342 325 296 266 244 236 228 224 221 222 222 220 219 222 226 227 228
211 224 242 258 259 256 244 231 239 244 257 267 281 286 268 267 282 302 310 316 318 324 331 336 341 348 351 346 332 310 275 246 236 230 224 224 222 219 221 223 225 228 230 231
226 223 230 243 257 256 257 240 233 238 242 256 270 278 284 285 281 296 306 312 312 314 324 333 339 343 347 346 338 322 303 261 238 228 224 225 220 220 221 224 226 230 233 236
235 231 232 233 242 255 246 249 243 241 241 244 257 275 285 288 292 291 297 299 303 305 315 324 332 337 341 342 341 331 312 292 248 226 221 222 222 223 225 227 231 235 238 239
230 231 232 235 237 243 243 243 245 244 246 247 253 270 276 285 278 275 282 288 293 300 304 310 322 330 336 338 338 333 329 313 275 244 232 227 225 226 229 232 236 236 238 239
234 232 230 226 234 234 233 231 232 237 242 248 250 264 273 273 267 266 271 277 285 291 294 299 308 320 327 330 330 323 319 313 289 267 253 240 233 232 237 242 245 244 244 247
239 237 236 230 231 248 252 249 237 235 235 242 251 254 263 268 268 265 269 272 276 281 286 289 295 305 314 321 320 312 302 295 285 276 268 257 249 246 249 252 255 257 255 255
243 238 237 236 232 241 252 256 253 241 236 240 249 257 261 266 268 263 268 272 272 274 278 281 284 291 298 305 312 308 295 290 279 272 268 260 257 257 257 258 261 262 260 261
242 245 241 238 234 239 247 251 254 252 249 248 249 253 255 260 268 268 268 275 274 272 272 275 279 283 288 292 294 294 297 290 281 272 269 266 264 263 262 263 265 265 265 264
241 241 243 241 236 239 239 245 249 249 247 246 247 248 250 254 258 263 266 268 267 267 268 269 273 277 280 282 282 282 285 286 284 280 275 271 268 267 266 269 270 271 268 267
243 243 244 244 243 245 244 244 244 246 246 247 249 250 250 253 256 259 261 263 264 263 264 267 269 271 273 274 276 276 279 282 282 282 281 278 275 272 271 272 273 272 271 270
246 247 247 246 244 244 245 246 247 247 251 250 251 253 255 256 255 257 258 260 261 261 262 264 266 268 268 269 271 273 275 279 281 282 283 283 279 276 274 274 274 274 273 273
241 247 248 247 247 246 246 246 246 249 249 254 256 256 256 256 256 256 258 258 258 259 260 261 263 264 265 265 267 270 272 275 277 280 282 281 280 277 275 274 275 277 276 275
236 245 249 248 246 245 246 248 249 252 255 257 259 258 257 255 254 254 255 257 256 257 258 258 259 260 262 263 265 267 270 272 274 277 280 280 278 277 276 275 275 276 276 275
238 243 246 245 243 245 248 250 253 255 258 260 261 260 258 256 253 252 253 254 255 255 256 256 256 257 258 260 263 265 268 270 272 275 278 280 278 276 277 276 275 276 276 275
244 245 245 247 249 249 251 252 255 258 259 261 261 260 259 257 255 254 253 253 253 253 254 253 254 255 257 259 262 264 266 270 271 274 277 278 276 276 277 276 276 277 276 274
244 248 249 249 249 250 251 255 257 258 260 261 260 259 257 257 256 254 254 253 252 252 252 252 252 254 257 258 260 264 268 271 273 273 276 278 277 277 276 276 275 274 276 278
245 250 251 250 250 251 253 256 260 261 261 260 260 258 257 255 255 253 253 253 251 250 251 251 253 255 257 260 262 264 266 269 271 272 274 275 275 276 277 276 276 278 281 284